Time,TemperatureF,DewpointF,PressureIn,WindDirection,WindDirectionDegrees,WindSpeedMPH,WindSpeedGustMPH,Humidity,HourlyPrecipIn,Conditions,Clouds,dailyrainin,SolarRadiationWatts/m^2,SoftwareType,DateUTC
2013-05-31 00:00:00,57.0,55.0,-100.00,South,180,7.0,-999.0,91,-99.99,,,-99.99,0.000000,,2013-05-31 05:00:00,
2013-05-31 00:32:00,57.0,55.0,-100.00,South,180,7.0,-999.0,91,-99.99,,,-99.99,0.000000,,2013-05-31 05:32:00,
2013-05-31 00:42:00,57.0,55.0,-100.00,South,180,7.0,-999.0,91,-99.99,,,-99.99,0.000000,,2013-05-31 05:42:00,
2013-05-31 00:52:00,57.0,55.0,-100.00,South,180,7.0,-999.0,91,-99.99,,,-99.99,0.000000,,2013-05-31 05:52:00,
2013-05-31 01:00:00,55.0,53.0,-100.00,SSE,157,4.0,-999.0,93,-99.99,,,-99.99,0.000000,,2013-05-31 06:00:00,
2013-05-31 01:32:00,55.0,53.0,-100.00,SSE,157,4.0,-999.0,93,-99.99,,,-99.99,0.000000,,2013-05-31 06:32:00,
2013-05-31 01:42:00,55.0,53.0,-100.00,SSE,157,4.0,-999.0,93,-99.99,,,-99.99,0.000000,,2013-05-31 06:42:00,
2013-05-31 01:52:00,55.0,53.0,-100.00,SSE,157,4.0,-999.0,93,-99.99,,,-99.99,0.000000,,2013-05-31 06:52:00,
2013-05-31 02:00:00,55.0,54.0,-100.00,SSE,157,4.0,-999.0,94,-99.99,,,-99.99,0.000000,,2013-05-31 07:00:00,
2013-05-31 02:32:00,55.0,54.0,-100.00,SSE,157,4.0,-999.0,94,-99.99,,,-99.99,0.000000,,2013-05-31 07:32:00,
2013-05-31 02:42:00,55.0,54.0,-100.00,SSE,157,4.0,-999.0,94,-99.99,,,-99.99,0.000000,,2013-05-31 07:42:00,
2013-05-31 02:52:00,55.0,54.0,-100.00,SSE,157,4.0,-999.0,94,-99.99,,,-99.99,0.000000,,2013-05-31 07:52:00,
2013-05-31 03:00:00,58.0,56.0,-100.00,SSE,157,3.0,-999.0,92,-99.99,,,-99.99,0.000000,,2013-05-31 08:00:00,
2013-05-31 03:32:00,58.0,56.0,-100.00,SSE,157,3.0,-999.0,92,-99.99,,,-99.99,0.000000,,2013-05-31 08:32:00,
2013-05-31 03:42:00,58.0,56.0,-100.00,SSE,157,3.0,-999.0,92,-99.99,,,-99.99,0.000000,,2013-05-31 08:42:00,
2013-05-31 03:52:00,58.0,56.0,-100.00,SSE,157,3.0,-999.0,92,-99.99,,,-99.99,0.000000,,2013-05-31 08:52:00,
2013-05-31 04:00:00,58.0,57.0,-100.00,SSE,157,6.0,-999.0,94,-99.99,,,-99.99,0.000000,,2013-05-31 09:00:00,
2013-05-31 04:32:00,58.0,57.0,-100.00,SSE,157,6.0,-999.0,94,-99.99,,,-99.99,0.000000,,2013-05-31 09:32:00,
2013-05-31 04:43:00,58.0,57.0,-100.00,SSE,157,6.0,-999.0,94,-99.99,,,-99.99,0.000000,,2013-05-31 09:43:00,
2013-05-31 04:53:00,58.0,57.0,-100.00,SSE,157,6.0,-999.0,94,-99.99,,,-99.99,0.000000,,2013-05-31 09:53:00,
2013-05-31 05:00:00,60.0,58.0,-100.00,South,180,7.0,-999.0,94,-99.99,,,-99.99,0.000000,,2013-05-31 10:00:00,
2013-05-31 05:33:00,60.0,58.0,-100.00,South,180,7.0,-999.0,94,-99.99,,,-99.99,0.000000,,2013-05-31 10:33:00,
2013-05-31 05:42:00,60.0,58.0,-100.00,South,180,7.0,-999.0,94,-99.99,,,-99.99,0.000000,,2013-05-31 10:42:00,
2013-05-31 05:52:00,60.0,58.0,-100.00,South,180,7.0,-999.0,94,-99.99,,,-99.99,0.000000,,2013-05-31 10:52:00,
2013-05-31 06:00:00,59.0,57.0,-100.00,South,180,8.0,-999.0,93,0.01,,,-99.99,9.280000,,2013-05-31 11:00:00,
2013-05-31 06:32:00,59.0,57.0,-100.00,South,180,8.0,-999.0,93,0.01,,,-99.99,9.280000,,2013-05-31 11:32:00,
2013-05-31 06:42:00,59.0,57.0,-100.00,South,180,8.0,-999.0,93,0.01,,,-99.99,9.280000,,2013-05-31 11:42:00,
2013-05-31 06:52:00,59.0,57.0,-100.00,South,180,8.0,-999.0,93,0.01,,,-99.99,9.280000,,2013-05-31 11:52:00,
2013-05-31 07:00:00,56.0,54.0,-100.00,South,180,7.0,-999.0,95,-99.99,,,-99.99,24.360001,,2013-05-31 12:00:00,
2013-05-31 07:32:00,56.0,54.0,-100.00,South,180,7.0,-999.0,95,-99.99,,,-99.99,24.360001,,2013-05-31 12:32:00,
2013-05-31 07:42:00,56.0,54.0,-100.00,South,180,7.0,-999.0,95,-99.99,,,-99.99,24.360001,,2013-05-31 12:42:00,
2013-05-31 07:52:00,56.0,54.0,-100.00,South,180,7.0,-999.0,95,-99.99,,,-99.99,24.360001,,2013-05-31 12:52:00,
2013-05-31 08:00:00,57.0,56.0,-100.00,South,180,5.0,-999.0,95,-99.99,,,-99.99,138.039993,,2013-05-31 13:00:00,
2013-05-31 08:32:00,57.0,56.0,-100.00,South,180,5.0,-999.0,95,-99.99,,,-99.99,138.039993,,2013-05-31 13:32:00,
2013-05-31 08:42:00,57.0,56.0,-100.00,South,180,5.0,-999.0,95,-99.99,,,-99.99,138.039993,,2013-05-31 13:42:00,
2013-05-31 08:52:00,57.0,56.0,-100.00,South,180,5.0,-999.0,95,-99.99,,,-99.99,138.039993,,2013-05-31 13:52:00,
2013-05-31 09:00:00,59.0,56.0,-100.00,SSE,157,5.0,-999.0,91,-99.99,,,-99.99,412.959991,,2013-05-31 14:00:00,
2013-05-31 09:32:00,59.0,56.0,-100.00,SSE,157,5.0,-999.0,91,-99.99,,,-99.99,412.959991,,2013-05-31 14:32:00,
2013-05-31 09:42:00,59.0,56.0,-100.00,SSE,157,5.0,-999.0,91,-99.99,,,-99.99,412.959991,,2013-05-31 14:42:00,
2013-05-31 09:52:00,59.0,56.0,-100.00,SSE,157,5.0,-999.0,91,-99.99,,,-99.99,412.959991,,2013-05-31 14:52:00,
2013-05-31 10:00:00,61.0,57.0,-100.00,South,180,5.0,-999.0,87,-99.99,,,-99.99,343.359985,,2013-05-31 15:00:00,
2013-05-31 10:33:00,61.0,57.0,-100.00,South,180,5.0,-999.0,87,-99.99,,,-99.99,343.359985,,2013-05-31 15:33:00,
2013-05-31 10:43:00,61.0,57.0,-100.00,South,180,5.0,-999.0,87,-99.99,,,-99.99,343.359985,,2013-05-31 15:43:00,
2013-05-31 10:53:00,61.0,57.0,-100.00,South,180,5.0,-999.0,87,-99.99,,,-99.99,343.359985,,2013-05-31 15:53:00,
2013-05-31 11:00:00,64.0,59.0,-100.00,SSE,157,6.0,-999.0,82,-99.99,,,-99.99,684.400024,,2013-05-31 16:00:00,
2013-05-31 11:33:00,64.0,59.0,-100.00,SSE,157,6.0,-999.0,82,-99.99,,,-99.99,684.400024,,2013-05-31 16:33:00,
2013-05-31 11:42:00,64.0,59.0,-100.00,SSE,157,6.0,-999.0,82,-99.99,,,-99.99,684.400024,,2013-05-31 16:42:00,
2013-05-31 11:52:00,64.0,59.0,-100.00,SSE,157,6.0,-999.0,82,-99.99,,,-99.99,684.400024,,2013-05-31 16:52:00,
2013-05-31 14:00:00,71.0,61.0,-100.00,South,180,8.0,-999.0,71,-99.99,,,-99.99,800.400024,,2013-05-31 19:00:00,
2013-05-31 14:32:00,71.0,61.0,-100.00,South,180,8.0,-999.0,71,-99.99,,,-99.99,800.400024,,2013-05-31 19:32:00,
2013-05-31 14:42:00,71.0,61.0,-100.00,South,180,8.0,-999.0,71,-99.99,,,-99.99,800.400024,,2013-05-31 19:42:00,
2013-05-31 14:52:00,71.0,61.0,-100.00,South,180,8.0,-999.0,71,-99.99,,,-99.99,800.400024,,2013-05-31 19:52:00,
2013-05-31 15:00:00,70.0,61.0,-100.00,South,180,8.0,-999.0,71,-99.99,,,-99.99,694.840027,,2013-05-31 20:00:00,
2013-05-31 15:32:00,70.0,61.0,-100.00,South,180,8.0,-999.0,71,-99.99,,,-99.99,694.840027,,2013-05-31 20:32:00,
2013-05-31 15:42:00,70.0,61.0,-100.00,South,180,8.0,-999.0,71,-99.99,,,-99.99,694.840027,,2013-05-31 20:42:00,
2013-05-31 15:52:00,70.0,61.0,-100.00,South,180,8.0,-999.0,71,-99.99,,,-99.99,694.840027,,2013-05-31 20:52:00,
2013-05-31 16:00:00,68.0,60.0,-100.00,South,180,9.0,-999.0,75,-99.99,,,-99.99,439.640015,,2013-05-31 21:00:00,
2013-05-31 16:33:00,68.0,60.0,-100.00,South,180,9.0,-999.0,75,-99.99,,,-99.99,439.640015,,2013-05-31 21:33:00,
2013-05-31 16:43:00,68.0,60.0,-100.00,South,180,9.0,-999.0,75,-99.99,,,-99.99,439.640015,,2013-05-31 21:43:00,
2013-05-31 16:54:00,68.0,60.0,-100.00,South,180,9.0,-999.0,75,-99.99,,,-99.99,439.640015,,2013-05-31 21:54:00,
2013-05-31 17:00:00,68.0,59.0,-100.00,South,180,9.0,-999.0,73,-99.99,,,-99.99,392.079987,,2013-05-31 22:00:00,
2013-05-31 17:33:00,68.0,59.0,-100.00,South,180,9.0,-999.0,73,-99.99,,,-99.99,392.079987,,2013-05-31 22:33:00,
2013-05-31 17:42:00,68.0,59.0,-100.00,South,180,9.0,-999.0,73,-99.99,,,-99.99,392.079987,,2013-05-31 22:42:00,
2013-05-31 17:53:00,68.0,59.0,-100.00,South,180,9.0,-999.0,73,-99.99,,,-99.99,392.079987,,2013-05-31 22:53:00,
2013-05-31 18:00:00,68.0,59.0,-100.00,South,180,7.0,-999.0,72,-99.99,,,-99.99,343.359985,,2013-05-31 23:00:00,
2013-05-31 18:32:00,68.0,59.0,-100.00,South,180,7.0,-999.0,72,-99.99,,,-99.99,343.359985,,2013-05-31 23:32:00,
2013-05-31 18:42:00,68.0,59.0,-100.00,South,180,7.0,-999.0,72,-99.99,,,-99.99,343.359985,,2013-05-31 23:42:00,
2013-05-31 18:52:00,68.0,59.0,-100.00,South,180,7.0,-999.0,72,-99.99,,,-99.99,343.359985,,2013-05-31 23:52:00,
2013-05-31 19:00:00,64.0,56.0,-100.00,SSE,157,5.0,-999.0,76,-99.99,,,-99.99,245.919998,,2013-06-01 00:00:00,
2013-05-31 19:32:00,64.0,56.0,-100.00,SSE,157,5.0,-999.0,76,-99.99,,,-99.99,245.919998,,2013-06-01 00:32:00,
2013-05-31 19:42:00,64.0,56.0,-100.00,SSE,157,5.0,-999.0,76,-99.99,,,-99.99,245.919998,,2013-06-01 00:42:00,
2013-05-31 19:52:00,64.0,56.0,-100.00,SSE,157,5.0,-999.0,76,-99.99,,,-99.99,245.919998,,2013-06-01 00:52:00,
2013-05-31 20:00:00,60.0,55.0,-100.00,SSE,157,3.0,-999.0,81,-99.99,,,-99.99,84.680000,,2013-06-01 01:00:00,
2013-05-31 20:32:00,60.0,55.0,-100.00,SSE,157,3.0,-999.0,81,-99.99,,,-99.99,84.680000,,2013-06-01 01:32:00,
2013-05-31 20:42:00,60.0,55.0,-100.00,SSE,157,3.0,-999.0,81,-99.99,,,-99.99,84.680000,,2013-06-01 01:42:00,
2013-05-31 20:52:00,60.0,55.0,-100.00,SSE,157,3.0,-999.0,81,-99.99,,,-99.99,84.680000,,2013-06-01 01:52:00,
2013-05-31 21:00:00,56.0,52.0,-100.00,SSE,157,3.0,-999.0,87,-99.99,,,-99.99,5.800000,,2013-06-01 02:00:00,
2013-05-31 21:32:00,56.0,52.0,-100.00,SSE,157,3.0,-999.0,87,-99.99,,,-99.99,5.800000,,2013-06-01 02:32:00,
2013-05-31 21:42:00,56.0,52.0,-100.00,SSE,157,3.0,-999.0,87,-99.99,,,-99.99,5.800000,,2013-06-01 02:42:00,
2013-05-31 21:52:00,56.0,52.0,-100.00,SSE,157,3.0,-999.0,87,-99.99,,,-99.99,5.800000,,2013-06-01 02:52:00,
2013-05-31 22:00:00,53.0,51.0,-100.00,SSE,157,4.0,-999.0,93,-99.99,,,-99.99,0.000000,,2013-06-01 03:00:00,
2013-05-31 22:33:00,53.0,51.0,-100.00,SSE,157,4.0,-999.0,93,-99.99,,,-99.99,0.000000,,2013-06-01 03:33:00,
2013-05-31 22:43:00,53.0,51.0,-100.00,SSE,157,4.0,-999.0,93,-99.99,,,-99.99,0.000000,,2013-06-01 03:43:00,
2013-05-31 22:53:00,53.0,51.0,-100.00,SSE,157,4.0,-999.0,93,-99.99,,,-99.99,0.000000,,2013-06-01 03:53:00,
2013-05-31 23:00:00,58.0,54.0,-100.00,South,180,6.0,-999.0,88,-99.99,,,-99.99,0.000000,,2013-06-01 04:00:00,
2013-05-31 23:33:00,58.0,54.0,-100.00,South,180,6.0,-999.0,88,-99.99,,,-99.99,0.000000,,2013-06-01 04:33:00,
2013-05-31 23:42:00,58.0,54.0,-100.00,South,180,6.0,-999.0,88,-99.99,,,-99.99,0.000000,,2013-06-01 04:42:00,
2013-05-31 23:53:00,58.0,54.0,-100.00,South,180,6.0,-999.0,88,-99.99,,,-99.99,0.000000,,2013-06-01 04:53:00,